ROG4RR LESO-LEXJ

Flight info

Callsign ROG4RR
Flight time 0h 55m
Altitude 10000
Route BLV
Aircraft DA42/L-SBDFGRY/C

Departure

Time 2026-05-08 12:31
Airport San Sebastián Airport (LESO)

Arrival

Time 2026-05-08 13:27
Airport Seve Ballesteros-Santander Airport (LEXJ)
Time Latitude Longitude Altitude Speed Heading
2026-05-08 12:02 43.35460 -1.79397 12 ft 0 kts 309°
2026-05-08 12:17 43.35461 -1.79399 12 ft 0 kts 285°
2026-05-08 12:17 43.35481 -1.79393 12 ft 0 kts 32°
2026-05-08 12:17 43.35489 -1.79386 11 ft 5 kts 34°
2026-05-08 12:18 43.35495 -1.79380 11 ft 0 kts 33°
2026-05-08 12:23 43.35515 -1.79337 12 ft 9 kts 102°
2026-05-08 12:23 43.35528 -1.79317 12 ft 0 kts 36°
2026-05-08 12:26 43.35542 -1.79300 12 ft 6 kts 46°
2026-05-08 12:26 43.35541 -1.79281 12 ft 0 kts 126°
2026-05-08 12:28 43.35511 -1.79234 13 ft 13 kts 138°
2026-05-08 12:29 43.35445 -1.79285 14 ft 12 kts 216°
2026-05-08 12:29 43.35373 -1.79363 14 ft 14 kts 221°
2026-05-08 12:29 43.35293 -1.79454 15 ft 16 kts 219°
2026-05-08 12:29 43.35205 -1.79549 15 ft 17 kts 217°
2026-05-08 12:30 43.35127 -1.79644 14 ft 12 kts 218°
2026-05-08 12:30 43.35081 -1.79743 14 ft 13 kts 208°
2026-05-08 12:30 43.35060 -1.79707 14 ft 8 kts 39°
2026-05-08 12:30 43.35162 -1.79597 14 ft 44 kts 38°
2026-05-08 12:31 43.35537 -1.79189 30 ft 86 kts 39°
2026-05-08 12:31 43.36004 -1.78717 315 ft 82 kts 39°
2026-05-08 12:31 43.36482 -1.78211 454 ft 95 kts 45°
2026-05-08 12:31 43.37103 -1.77781 682 ft 98 kts 15°
2026-05-08 12:32 43.37752 -1.77535 1025 ft 97 kts 22°
2026-05-08 12:32 43.38405 -1.77228 1315 ft 103 kts 26°
2026-05-08 12:32 43.39055 -1.76789 1584 ft 106 kts 31°
2026-05-08 12:32 43.39727 -1.76350 1858 ft 107 kts 30°
2026-05-08 12:33 43.40420 -1.75919 2115 ft 111 kts 31°
2026-05-08 12:33 43.41183 -1.75711 2379 ft 114 kts 349°
2026-05-08 12:33 43.41851 -1.76134 2607 ft 106 kts 306°
2026-05-08 12:33 43.42193 -1.76998 2797 ft 103 kts 270°
2026-05-08 12:34 43.42211 -1.77991 2989 ft 107 kts 259°
2026-05-08 12:34 43.42198 -1.78991 3311 ft 101 kts 257°
2026-05-08 12:34 43.42185 -1.79928 3647 ft 95 kts 257°
2026-05-08 12:34 43.42171 -1.80808 3986 ft 90 kts 256°
2026-05-08 12:35 43.42159 -1.81642 4322 ft 85 kts 254°
2026-05-08 12:35 43.42147 -1.82430 4610 ft 85 kts 254°
2026-05-08 12:35 43.42134 -1.83255 4865 ft 88 kts 255°
2026-05-08 12:35 43.42117 -1.84110 5121 ft 91 kts 255°
2026-05-08 12:36 43.42096 -1.84994 5374 ft 94 kts 255°
2026-05-08 12:36 43.42072 -1.85908 5633 ft 97 kts 256°
2026-05-08 12:36 43.42046 -1.86849 5891 ft 100 kts 256°
2026-05-08 12:36 43.42016 -1.87820 6134 ft 103 kts 257°
2026-05-08 12:37 43.41985 -1.88818 6385 ft 106 kts 257°
2026-05-08 12:37 43.41953 -1.89838 6632 ft 108 kts 257°
2026-05-08 12:37 43.41921 -1.90867 6871 ft 110 kts 258°
2026-05-08 12:37 43.41890 -1.91924 7135 ft 111 kts 259°
2026-05-08 12:38 43.41860 -1.92993 7381 ft 112 kts 260°
2026-05-08 12:38 43.41831 -1.94073 7628 ft 113 kts 260°
2026-05-08 12:38 43.41835 -1.95162 7884 ft 115 kts 265°
2026-05-08 12:38 43.41886 -1.96259 8132 ft 115 kts 265°
2026-05-08 12:39 43.41914 -1.97364 8388 ft 116 kts 263°
2026-05-08 12:39 43.41919 -1.98478 8645 ft 117 kts 262°
2026-05-08 12:39 43.41912 -1.99582 8894 ft 117 kts 262°
2026-05-08 12:39 43.41900 -2.00708 9155 ft 118 kts 262°
2026-05-08 12:40 43.41886 -2.01849 9419 ft 121 kts 262°
2026-05-08 12:40 43.41870 -2.03006 9684 ft 123 kts 262°
2026-05-08 12:40 43.41853 -2.04189 9895 ft 128 kts 262°
2026-05-08 12:40 43.41832 -2.05499 9900 ft 145 kts 263°
2026-05-08 12:41 43.41811 -2.06943 9901 ft 156 kts 263°
2026-05-08 12:41 43.41790 -2.08465 9901 ft 161 kts 263°
2026-05-08 12:41 43.41767 -2.10017 9900 ft 163 kts 263°
2026-05-08 12:41 43.41744 -2.11578 9900 ft 163 kts 263°
2026-05-08 12:42 43.41719 -2.13121 9897 ft 163 kts 262°
2026-05-08 12:42 43.41544 -2.14651 9894 ft 162 kts 254°
2026-05-08 12:42 43.41331 -2.16169 9894 ft 162 kts 254°
2026-05-08 12:42 43.41118 -2.17685 9893 ft 162 kts 254°
2026-05-08 12:43 43.40905 -2.19205 9887 ft 162 kts 253°
2026-05-08 12:43 43.40693 -2.20720 9887 ft 160 kts 253°
2026-05-08 12:43 43.40490 -2.22193 9885 ft 153 kts 253°
2026-05-08 12:43 43.40298 -2.23576 9884 ft 146 kts 253°
2026-05-08 12:44 43.40109 -2.24927 9883 ft 141 kts 251°
2026-05-08 12:44 43.39923 -2.26238 9881 ft 139 kts 252°
2026-05-08 12:44 43.39740 -2.27530 9880 ft 137 kts 253°
2026-05-08 12:44 43.39560 -2.28814 9881 ft 136 kts 251°
2026-05-08 12:45 43.39382 -2.30085 9887 ft 135 kts 250°
2026-05-08 12:45 43.39203 -2.31347 9885 ft 134 kts 250°
2026-05-08 12:45 43.39027 -2.32599 9885 ft 133 kts 250°
2026-05-08 12:45 43.38853 -2.33829 9885 ft 133 kts 251°
2026-05-08 12:46 43.38677 -2.35080 9889 ft 133 kts 251°
2026-05-08 12:46 43.38500 -2.36333 9888 ft 134 kts 251°
2026-05-08 12:46 43.38324 -2.37588 9888 ft 134 kts 250°
2026-05-08 12:46 43.38147 -2.38841 9890 ft 133 kts 250°
2026-05-08 12:47 43.37969 -2.40093 9890 ft 133 kts 251°
2026-05-08 12:47 43.37851 -2.41370 9890 ft 136 kts 257°
2026-05-08 12:47 43.37783 -2.42668 9892 ft 137 kts 257°
2026-05-08 12:47 43.37719 -2.43975 9892 ft 138 kts 257°
2026-05-08 12:48 43.37599 -2.45251 9890 ft 135 kts 250°
2026-05-08 12:48 43.37390 -2.46509 9890 ft 135 kts 249°
2026-05-08 12:48 43.37188 -2.47770 9891 ft 135 kts 249°
2026-05-08 12:48 43.36994 -2.49035 9892 ft 135 kts 249°
2026-05-08 12:49 43.36803 -2.50303 9892 ft 136 kts 249°
2026-05-08 12:49 43.36610 -2.51587 9889 ft 139 kts 251°
2026-05-08 12:49 43.36414 -2.52893 9886 ft 140 kts 251°
2026-05-08 12:49 43.36220 -2.54200 9887 ft 139 kts 251°
2026-05-08 12:50 43.36029 -2.55487 9882 ft 139 kts 250°
2026-05-08 12:50 43.35835 -2.56784 9879 ft 138 kts 250°
2026-05-08 12:50 43.35644 -2.58058 9874 ft 134 kts 249°
2026-05-08 12:50 43.35458 -2.59295 9878 ft 132 kts 250°
2026-05-08 12:51 43.35273 -2.60531 9872 ft 130 kts 250°
2026-05-08 12:51 43.34909 -2.62946 9872 ft 126 kts 250°
2026-05-08 12:51 43.34731 -2.64132 9880 ft 128 kts 250°
2026-05-08 12:52 43.34552 -2.65320 9878 ft 129 kts 250°
2026-05-08 12:52 43.34188 -2.67744 9885 ft 129 kts 250°
2026-05-08 12:52 43.34007 -2.68941 9886 ft 127 kts 250°
2026-05-08 12:53 43.33826 -2.70136 9888 ft 128 kts 250°
2026-05-08 12:53 43.33643 -2.71341 9887 ft 129 kts 250°
2026-05-08 12:53 43.33459 -2.72555 9887 ft 130 kts 250°
2026-05-08 12:53 43.33277 -2.73762 9885 ft 129 kts 250°
2026-05-08 12:54 43.33095 -2.74967 9883 ft 129 kts 250°
2026-05-08 12:54 43.32914 -2.76159 9886 ft 130 kts 250°
2026-05-08 12:54 43.32729 -2.77377 9884 ft 131 kts 249°
2026-05-08 12:54 43.32544 -2.78598 9883 ft 130 kts 250°
2026-05-08 12:55 43.32360 -2.79805 9879 ft 128 kts 250°
2026-05-08 12:55 43.32180 -2.80992 9881 ft 127 kts 250°
2026-05-08 12:55 43.31998 -2.82189 9891 ft 129 kts 250°
2026-05-08 12:55 43.31813 -2.83405 9894 ft 131 kts 250°
2026-05-08 12:56 43.31626 -2.84636 9882 ft 131 kts 249°
2026-05-08 12:56 43.31444 -2.85825 9889 ft 128 kts 249°
2026-05-08 12:56 43.31261 -2.87028 9891 ft 130 kts 250°
2026-05-08 12:56 43.31075 -2.88246 9893 ft 131 kts 250°
2026-05-08 12:57 43.30885 -2.89482 9892 ft 133 kts 250°
2026-05-08 12:57 43.30694 -2.90732 9892 ft 134 kts 250°
2026-05-08 12:57 43.30501 -2.91992 9894 ft 135 kts 250°
2026-05-08 12:57 43.30396 -2.93291 9892 ft 138 kts 259°
2026-05-08 12:58 43.30360 -2.94607 9894 ft 138 kts 259°
2026-05-08 12:58 43.30325 -2.95904 9894 ft 138 kts 259°
2026-05-08 12:58 43.30288 -2.97218 9894 ft 138 kts 260°
2026-05-08 12:58 43.30251 -2.98537 9894 ft 138 kts 259°
2026-05-08 12:59 43.30213 -2.99853 9893 ft 138 kts 259°
2026-05-08 12:59 43.30176 -3.01166 9892 ft 137 kts 259°
2026-05-08 12:59 43.30139 -3.02475 9894 ft 137 kts 259°
2026-05-08 12:59 43.30101 -3.03790 9892 ft 138 kts 260°
2026-05-08 13:00 43.30063 -3.05106 9887 ft 138 kts 259°
2026-05-08 13:00 43.30024 -3.06421 9893 ft 138 kts 259°
2026-05-08 13:00 43.29987 -3.07719 9890 ft 137 kts 260°
2026-05-08 13:00 43.29950 -3.09022 9886 ft 136 kts 260°
2026-05-08 13:01 43.29913 -3.10312 9893 ft 135 kts 257°
2026-05-08 13:01 43.29873 -3.11601 9893 ft 135 kts 257°
2026-05-08 13:01 43.29835 -3.12891 9892 ft 135 kts 258°
2026-05-08 13:01 43.29797 -3.14182 9893 ft 136 kts 258°
2026-05-08 13:02 43.29758 -3.15493 9895 ft 139 kts 258°
2026-05-08 13:02 43.29717 -3.16830 9891 ft 141 kts 259°
2026-05-08 13:02 43.29677 -3.18184 9892 ft 142 kts 260°
2026-05-08 13:02 43.29637 -3.19543 9889 ft 142 kts 260°
2026-05-08 13:03 43.29595 -3.20864 9879 ft 138 kts 259°
2026-05-08 13:03 43.29556 -3.22164 9876 ft 136 kts 260°
2026-05-08 13:03 43.29519 -3.23452 9891 ft 136 kts 258°
2026-05-08 13:03 43.29479 -3.24756 9893 ft 138 kts 258°
2026-05-08 13:04 43.29439 -3.26068 9887 ft 137 kts 259°
2026-05-08 13:04 43.29399 -3.27368 9888 ft 136 kts 259°
2026-05-08 13:04 43.29361 -3.28646 9886 ft 131 kts 259°
2026-05-08 13:04 43.29322 -3.29897 9887 ft 132 kts 260°
2026-05-08 13:05 43.29285 -3.31126 9893 ft 131 kts 260°
2026-05-08 13:05 43.29450 -3.32392 9895 ft 140 kts 282°
2026-05-08 13:05 43.29786 -3.33645 9892 ft 140 kts 283°
2026-05-08 13:05 43.30124 -3.34881 9876 ft 137 kts 283°
2026-05-08 13:06 43.30457 -3.36100 9894 ft 138 kts 282°
2026-05-08 13:06 43.30798 -3.37361 9895 ft 144 kts 283°
2026-05-08 13:06 43.31152 -3.38657 9893 ft 146 kts 283°
2026-05-08 13:06 43.31506 -3.39962 9890 ft 146 kts 283°
2026-05-08 13:07 43.31855 -3.41247 9888 ft 145 kts 283°
2026-05-08 13:07 43.32205 -3.42548 9887 ft 146 kts 281°
2026-05-08 13:07 43.32694 -3.43785 9895 ft 155 kts 308°
2026-05-08 13:07 43.33690 -3.44425 9892 ft 164 kts 353°
2026-05-08 13:08 43.34778 -3.44070 9886 ft 163 kts 39°
2026-05-08 13:08 43.35433 -3.42924 9884 ft 147 kts 82°
2026-05-08 13:08 43.35382 -3.41635 9897 ft 131 kts 117°
2026-05-08 13:08 43.35017 -3.40490 9889 ft 130 kts 122°
2026-05-08 13:09 43.34638 -3.39366 9889 ft 129 kts 122°
2026-05-08 13:09 43.34290 -3.38227 9889 ft 130 kts 120°
2026-05-08 13:09 43.33967 -3.37088 9889 ft 130 kts 119°
2026-05-08 13:09 43.33649 -3.35932 9889 ft 129 kts 119°
2026-05-08 13:10 43.33336 -3.34782 9876 ft 127 kts 119°
2026-05-08 13:10 43.33032 -3.33664 9879 ft 124 kts 117°
2026-05-08 13:10 43.32731 -3.32554 9878 ft 124 kts 117°
2026-05-08 13:10 43.32433 -3.31452 9878 ft 121 kts 118°
2026-05-08 13:11 43.32094 -3.30406 9878 ft 118 kts 131°
2026-05-08 13:11 43.31486 -3.29707 9882 ft 114 kts 159°
2026-05-08 13:11 43.30731 -3.29523 9889 ft 113 kts 184°
2026-05-08 13:11 43.29984 -3.29891 9890 ft 118 kts 210°
2026-05-08 13:12 43.29457 -3.30786 9893 ft 126 kts 238°
2026-05-08 13:12 43.29367 -3.32021 9889 ft 140 kts 274°
2026-05-08 13:12 43.29680 -3.33305 9894 ft 143 kts 282°
2026-05-08 13:12 43.30034 -3.34566 9886 ft 140 kts 283°
2026-05-08 13:13 43.30377 -3.35801 9894 ft 139 kts 282°
2026-05-08 13:13 43.30723 -3.37079 9893 ft 146 kts 282°
2026-05-08 13:13 43.31085 -3.38409 9887 ft 150 kts 282°
2026-05-08 13:13 43.31451 -3.39758 9847 ft 153 kts 282°
2026-05-08 13:14 43.31831 -3.41178 9591 ft 166 kts 282°
2026-05-08 13:14 43.32243 -3.42703 9325 ft 174 kts 283°
2026-05-08 13:14 43.32919 -3.44051 9079 ft 177 kts 315°
2026-05-08 13:14 43.34086 -3.44594 8819 ft 181 kts 358°
2026-05-08 13:15 43.35246 -3.44073 8565 ft 174 kts 41°
2026-05-08 13:15 43.35879 -3.42778 8303 ft 158 kts 85°
2026-05-08 13:15 43.35743 -3.41413 8053 ft 139 kts 129°
2026-05-08 13:15 43.35131 -3.40442 7814 ft 134 kts 139°
2026-05-08 13:16 43.34632 -3.39358 7565 ft 139 kts 124°
2026-05-08 13:16 43.34252 -3.38131 7316 ft 140 kts 119°
2026-05-08 13:16 43.33802 -3.36972 7066 ft 135 kts 135°
2026-05-08 13:16 43.33122 -3.36158 6813 ft 126 kts 155°
2026-05-08 13:17 43.32310 -3.35866 6575 ft 122 kts 186°
2026-05-08 13:17 43.31524 -3.36293 6389 ft 124 kts 216°
2026-05-08 13:17 43.31016 -3.37253 6233 ft 131 kts 243°
2026-05-08 13:17 43.30989 -3.38546 6053 ft 146 kts 278°
2026-05-08 13:18 43.31361 -3.39863 5893 ft 148 kts 284°
2026-05-08 13:18 43.31755 -3.41112 5885 ft 137 kts 283°
2026-05-08 13:18 43.32108 -3.42268 5876 ft 130 kts 282°
2026-05-08 13:18 43.32426 -3.43411 5903 ft 130 kts 278°
2026-05-08 13:19 43.32724 -3.44608 5883 ft 135 kts 277°
2026-05-08 13:19 43.33027 -3.45834 5888 ft 137 kts 278°
2026-05-08 13:19 43.33342 -3.47082 5887 ft 140 kts 278°
2026-05-08 13:19 43.33670 -3.48344 5926 ft 138 kts 278°
2026-05-08 13:20 43.33994 -3.49578 5932 ft 137 kts 277°
2026-05-08 13:20 43.34322 -3.50815 5887 ft 141 kts 278°
2026-05-08 13:20 43.34677 -3.52148 5626 ft 153 kts 279°
2026-05-08 13:20 43.35034 -3.53527 5376 ft 157 kts 279°
2026-05-08 13:21 43.35413 -3.54965 5129 ft 163 kts 281°
2026-05-08 13:21 43.35840 -3.56438 4882 ft 168 kts 281°
2026-05-08 13:21 43.36271 -3.57924 4619 ft 162 kts 282°
2026-05-08 13:21 43.36716 -3.59355 4092 ft 163 kts 282°
2026-05-08 13:22 43.37150 -3.60716 3899 ft 152 kts 285°
2026-05-08 13:22 43.37600 -3.62081 3518 ft 159 kts 283°
2026-05-08 13:22 43.37999 -3.63520 2977 ft 164 kts 280°
2026-05-08 13:22 43.38346 -3.64993 2441 ft 163 kts 281°
2026-05-08 13:23 43.38644 -3.66444 2195 ft 153 kts 279°
2026-05-08 13:23 43.38955 -3.67797 1997 ft 145 kts 282°
2026-05-08 13:23 43.39276 -3.69079 1798 ft 135 kts 279°
2026-05-08 13:23 43.39571 -3.70210 1648 ft 118 kts 279°
2026-05-08 13:24 43.39844 -3.71235 1486 ft 112 kts 279°
2026-05-08 13:24 43.40110 -3.72233 1335 ft 109 kts 279°
2026-05-08 13:24 43.40362 -3.73182 1192 ft 104 kts 282°
2026-05-08 13:24 43.40605 -3.74094 1063 ft 101 kts 280°
2026-05-08 13:25 43.40846 -3.75005 959 ft 101 kts 279°
2026-05-08 13:25 43.41088 -3.75919 812 ft 101 kts 282°
2026-05-08 13:25 43.41322 -3.76798 681 ft 96 kts 287°
2026-05-08 13:25 43.41549 -3.77640 548 ft 88 kts 287°
2026-05-08 13:26 43.41731 -3.78354 439 ft 73 kts 285°
2026-05-08 13:26 43.41897 -3.79010 344 ft 73 kts 291°
2026-05-08 13:26 43.42084 -3.79712 253 ft 81 kts 291°
2026-05-08 13:26 43.42274 -3.80401 136 ft 78 kts 295°
2026-05-08 13:27 43.42453 -3.81060 29 ft 70 kts 291°
2026-05-08 13:27 43.42586 -3.81559 17 ft 47 kts 290°
2026-05-08 13:27 43.42699 -3.81974 13 ft 42 kts 289°
2026-05-08 13:27 43.42748 -3.82178 12 ft 16 kts 262°
2026-05-08 13:28 43.42706 -3.82240 13 ft 10 kts 194°
2026-05-08 13:28 43.42619 -3.82278 13 ft 12 kts 201°
2026-05-08 13:28 43.42528 -3.82328 13 ft 16 kts 205°
2026-05-08 13:28 43.42458 -3.82366 13 ft 5 kts 224°
2026-05-08 13:29 43.42466 -3.82431 13 ft 9 kts 290°
2026-05-08 13:29 43.42486 -3.82507 13 ft 8 kts 266°
2026-05-08 13:29 43.42473 -3.82562 13 ft 7 kts 286°
2026-05-08 13:29 43.42452 -3.82602 13 ft 1 kts 200°
2026-05-08 13:30 43.42450 -3.82603 13 ft 0 kts 207°
2026-05-08 13:30 43.42449 -3.82604 13 ft 0 kts 207°
2026-05-08 13:30 43.42445 -3.82606 13 ft 1 kts 199°
2026-05-08 13:30 43.42438 -3.82621 13 ft 2 kts 304°
2026-05-08 13:31 43.42441 -3.82632 13 ft 0 kts 289°
2026-05-08 13:31 43.42442 -3.82633 13 ft 0 kts 290°